When you browse on this site, cookies collect data to enhance your experience and personalize the content and advertising you see.
Visit our Privacy Policy to learn more. By continuing to use the site, you agree to this use of cookies and data.
  • In Portugal
  • List of Countries
  • For 7 days
  • Water Temperature
  • Satellite Maps
  • Weather Map
  • Weather Widgets
  • user-avatar
    Login

    Hourly Weather Linz

    Today, 21 May, Tuesday

    Time Temperature Precipitation Wind Pressure Humidity
    00:00 +10°C° 1 mm 2 mps 724 mmHg 95%
    01:00 +10°C° 0 mm 2 mps 723 mmHg 96%
    02:00 +10°C° 1.1 mm 2 mps 724 mmHg 96%
    03:00 +10°C° 1.1 mm 2 mps 724 mmHg 96%
    04:00 +10°C° 1.1 mm 2 mps 724 mmHg 96%
    05:00 +11°C° 0.6 mm 3 mps 724 mmHg 95%
    06:00 +11°C° 0.6 mm 3 mps 724 mmHg 94%
    07:00 +11°C° 0 mm 4 mps 724 mmHg 95%
    08:00 +11°C° 0.5 mm 4 mps 725 mmHg 94%
    09:00 +10°C° 0.5 mm 5 mps 725 mmHg 93%
    10:00 +10°C° 0.5 mm 5 mps 726 mmHg 93%
    11:00 +10°C° 0.2 mm 5 mps 726 mmHg 92%
    12:00 +10°C° 0.2 mm 5 mps 726 mmHg 92%
    13:00 +12°C° 0 mm 4 mps 727 mmHg 91%
    14:00 +12°C° 0.1 mm 5 mps 727 mmHg 90%
    15:00 +13°C° 0.1 mm 5 mps 727 mmHg 88%
    16:00 +13°C° 0.1 mm 6 mps 727 mmHg 87%
    17:00 +12°C° 0.1 mm 5 mps 728 mmHg 87%
    18:00 +12°C° 0.1 mm 5 mps 728 mmHg 88%
    19:00 +12°C° 0.1 mm 5 mps 728 mmHg 89%
    20:00 +10°C° 0.1 mm 5 mps 728 mmHg 90%
    21:00 +10°C° 0.1 mm 5 mps 729 mmHg 90%
    22:00 +10°C° 0.1 mm 5 mps 729 mmHg 90%
    23:00 +10°C° 0.3 mm 5 mps 730 mmHg 91%

    Tomorrow, 22 May, Wednesday

    Time Temperature Precipitation Wind Pressure Humidity
    00:00 +10°C° 0.3 mm 5 mps 730 mmHg 92%
    01:00 +10°C° 0.3 mm 5 mps 730 mmHg 93%
    02:00 +10°C° 1.1 mm 5 mps 730 mmHg 94%
    03:00 +10°C° 1.1 mm 6 mps 730 mmHg 94%
    04:00 +9°C° 1.1 mm 6 mps 730 mmHg 94%
    05:00 +10°C° 1.5 mm 5 mps 731 mmHg 95%
    06:00 +10°C° 1.5 mm 5 mps 731 mmHg 95%
    07:00 +10°C° 1.5 mm 5 mps 731 mmHg 95%
    08:00 +10°C° 0.2 mm 5 mps 731 mmHg 94%
    09:00 +11°C° 0.2 mm 6 mps 732 mmHg 92%
    10:00 +13°C° 0.2 mm 6 mps 732 mmHg 91%
    11:00 +13°C° 0.1 mm 6 mps 732 mmHg 90%
    12:00 +13°C° 0.1 mm 6 mps 732 mmHg 89%
    13:00 +13°C° 0.1 mm 6 mps 732 mmHg 89%
    14:00 +14°C° 0.2 mm 6 mps 732 mmHg 87%
    15:00 +14°C° 0.2 mm 6 mps 732 mmHg 86%
    16:00 +15°C° 0.2 mm 6 mps 732 mmHg 84%
    17:00 +14°C° 0.5 mm 5 mps 733 mmHg 87%
    18:00 +14°C° 0.5 mm 4 mps 733 mmHg 89%
    19:00 +13°C° 0.5 mm 3 mps 733 mmHg 92%
    20:00 +12°C° 0.2 mm 3 mps 734 mmHg 93%
    21:00 +12°C° 0.2 mm 3 mps 734 mmHg 94%
    22:00 +12°C° 0.2 mm 2 mps 734 mmHg 95%
    23:00 +12°C° 0.1 mm 2 mps 735 mmHg 95%

    Day after tomorrow, 23 May, Thursday

    Time Temperature Precipitation Wind Pressure Humidity
    00:00 +10°C° 0.1 mm 2 mps 735 mmHg 96%
    01:00 +10°C° 0.1 mm 2 mps 735 mmHg 96%
    02:00 +10°C° 0 mm 2 mps 735 mmHg 96%
    03:00 +9°C° 0 mm 2 mps 735 mmHg 97%
    04:00 +9°C° 0 mm 2 mps 735 mmHg 97%
    05:00 +10°C° 0 mm 2 mps 735 mmHg 95%
    06:00 +10°C° 0 mm 2 mps 736 mmHg 93%
    07:00 +12°C° 0 mm 2 mps 736 mmHg 91%
    08:00 +13°C° 0 mm 3 mps 736 mmHg 81%
    09:00 +14°C° 0 mm 3 mps 736 mmHg 72%
    10:00 +17°C° 0 mm 3 mps 736 mmHg 63%
    11:00 +18°C° 0 mm 3 mps 736 mmHg 59%
    12:00 +19°C° 0 mm 3 mps 735 mmHg 55%
    13:00 +20°C° 0 mm 3 mps 735 mmHg 51%
    14:00 +20°C° 0 mm 2 mps 735 mmHg 51%
    15:00 +20°C° 0 mm 2 mps 734 mmHg 52%
    16:00 +20°C° 0 mm 2 mps 734 mmHg 52%
    17:00 +19°C° 0 mm 2 mps 734 mmHg 59%
    18:00 +17°C° 0 mm 2 mps 734 mmHg 67%
    19:00 +16°C° 0 mm 1 mps 734 mmHg 74%
    20:00 +15°C° 0 mm 1 mps 735 mmHg 77%
    21:00 +13°C° 0 mm 1 mps 735 mmHg 80%
    22:00 +12°C° 0 mm 1 mps 735 mmHg 83%
    23:00 +12°C° 0 mm 1 mps 735 mmHg 84%

    24 May, Friday

    Time Temperature Precipitation Wind Pressure Humidity
    00:00 +11°C° 0 mm 1 mps 735 mmHg 85%
    01:00 +11°C° 0 mm 1 mps 735 mmHg 86%
    02:00 +10°C° 0 mm 1 mps 735 mmHg 87%
    03:00 +10°C° 0 mm 1 mps 734 mmHg 88%
    04:00 +9°C° 0 mm 1 mps 734 mmHg 89%
    05:00 +11°C° 0 mm 1 mps 734 mmHg 84%
    06:00 +12°C° 0 mm 0 mps 734 mmHg 80%
    07:00 +13°C° 0 mm 0 mps 734 mmHg 75%
    08:00 +15°C° 0 mm 0 mps 734 mmHg 71%
    09:00 +19°C° 0 mm 1 mps 734 mmHg 67%
    10:00 +20°C° 0 mm 1 mps 734 mmHg 63%
    11:00 +21°C° 0 mm 1 mps 733 mmHg 60%
    12:00 +22°C° 0 mm 1 mps 733 mmHg 58%
    13:00 +22°C° 0 mm 1 mps 733 mmHg 55%
    14:00 +23°C° 0 mm 1 mps 732 mmHg 55%
    15:00 +23°C° 0 mm 1 mps 732 mmHg 55%
    16:00 +23°C° 0 mm 1 mps 732 mmHg 54%
    17:00 +21°C° 0 mm 1 mps 732 mmHg 61%
    18:00 +20°C° 0 mm 1 mps 732 mmHg 67%
    19:00 +17°C° 0 mm 0 mps 731 mmHg 73%
    20:00 +15°C° 0 mm 0 mps 732 mmHg 77%
    21:00 +15°C° 0 mm 1 mps 732 mmHg 80%
    22:00 +13°C° 0 mm 1 mps 732 mmHg 83%
    23:00 +13°C° 0 mm 1 mps 732 mmHg 85%

    25 May, Saturday

    Time Temperature Precipitation Wind Pressure Humidity
    00:00 +13°C° 0 mm 1 mps 732 mmHg 86%
    01:00 +12°C° 0 mm 1 mps 732 mmHg 87%
    02:00 +12°C° 0 mm 1 mps 732 mmHg 88%
    03:00 +11°C° 0 mm 1 mps 732 mmHg 89%
    04:00 +11°C° 0 mm 1 mps 732 mmHg 89%
    05:00 +13°C° 0 mm 1 mps 732 mmHg 85%
    06:00 +14°C° 0 mm 1 mps 732 mmHg 81%
    07:00 +16°C° 0 mm 1 mps 732 mmHg 76%
    08:00 +18°C° 0 mm 1 mps 733 mmHg 72%
    09:00 +20°C° 0 mm 1 mps 733 mmHg 68%
    10:00 +20°C° 0 mm 2 mps 733 mmHg 64%
    11:00 +21°C° 0 mm 2 mps 732 mmHg 61%
    12:00 +23°C° 0 mm 2 mps 732 mmHg 58%
    13:00 +24°C° 0 mm 2 mps 732 mmHg 56%
    14:00 +24°C° 0 mm 2 mps 732 mmHg 56%
    15:00 +24°C° 0 mm 2 mps 732 mmHg 56%
    16:00 +24°C° 0 mm 2 mps 732 mmHg 56%
    17:00 +23°C° 0.2 mm 2 mps 732 mmHg 63%
    18:00 +20°C° 0.2 mm 2 mps 732 mmHg 70%
    19:00 +18°C° 0.2 mm 2 mps 732 mmHg 78%
    20:00 +17°C° 0.1 mm 2 mps 732 mmHg 81%
    21:00 +16°C° 0.1 mm 2 mps 732 mmHg 84%
    22:00 +15°C° 0.1 mm 2 mps 733 mmHg 87%
    23:00 +15°C° 0 mm 2 mps 733 mmHg 89%

    26 May, Sunday

    Time Temperature Precipitation Wind Pressure Humidity
    00:00 +14°C° 0 mm 2 mps 733 mmHg 91%
    01:00 +14°C° 0 mm 2 mps 733 mmHg 93%
    02:00 +14°C° 0 mm 2 mps 733 mmHg 93%
    03:00 +13°C° 0 mm 2 mps 733 mmHg 94%
    04:00 +12°C° 0 mm 2 mps 733 mmHg 95%
    05:00 +13°C° 0 mm 2 mps 733 mmHg 92%
    06:00 +14°C° 0 mm 2 mps 733 mmHg 88%
    07:00 +15°C° 0 mm 2 mps 733 mmHg 85%
    08:00 +16°C° 0.1 mm 3 mps 733 mmHg 79%
    09:00 +17°C° 0.1 mm 4 mps 733 mmHg 73%
    10:00 +19°C° 0.1 mm 5 mps 733 mmHg 68%
    11:00 +19°C° 0.2 mm 5 mps 733 mmHg 66%
    12:00 +20°C° 0.2 mm 5 mps 733 mmHg 65%
    13:00 +20°C° 0.2 mm 5 mps 733 mmHg 64%
    14:00 +20°C° 0 mm 5 mps 733 mmHg 63%
    15:00 +21°C° 0 mm 5 mps 732 mmHg 62%
    16:00 +21°C° 0 mm 4 mps 732 mmHg 62%
    17:00 +20°C° 0.1 mm 4 mps 732 mmHg 68%
    18:00 +19°C° 0.1 mm 3 mps 732 mmHg 75%
    19:00 +17°C° 0.1 mm 3 mps 732 mmHg 81%
    20:00 +16°C° 0 mm 3 mps 733 mmHg 84%
    21:00 +14°C° 0 mm 3 mps 733 mmHg 87%
    22:00 +14°C° 0 mm 2 mps 733 mmHg 90%
    23:00 +14°C° 0 mm 2 mps 733 mmHg 91%
    Show more